Regional Weather Roundup
Issued by NWS

Home | Current Version | Previous Version | Graphics & Text | Print | Product List | Glossary Off
Versions: 1 2 3 4 5 6 7 8 9 10 11 12 13 14 15 16 17 18 19 20 21 22 23 24 25 26 27 28 29 30 31 32 33 34 35 36 37 38 39 40 41 42 43 44 45 46 47 48 49 50

855
ASUS43 KDMX 121101
RWRIA

WEATHER ROUNDUP FOR IOWA
NATIONAL WEATHER SERVICE DES MOINES IA
500 AM CST TUE DEC 12 2017

NOTE: "FAIR" INDICATES FEW OR NO CLOUDS BELOW 12,000 FEET WITH NO
SIGNIFICANT WEATHER AND/OR OBSTRUCTIONS TO VISIBILITY.

* - THESE STATIONS ARE NOT NWS STATIONS...THUS NOT UNDER NWS
QUALITY CONTROL.  THEY ALSO DO NOT REPORT WEATHER SUCH
AS PRECIPITATION OR FOG.

IAZ001>003-012>014-020>022-031>034-043>046-121200-
   NORTHWEST IOWA

CITY           SKY/WX    TMP DP  RH WIND       PRES   REMARKS
CARROLL *      CLOUDY    14  10  85 NW9       30.29S WCI   2
CHEROKEE *     CLOUDY    11  10  94 W5        30.30F WCI   3
DENISON *      CLOUDY    14  10  85 W6        30.32S WCI   5
LE MARS *      CLOUDY    12  10  92 NW5       30.33R WCI   4
ORANGE CITY *  CLOUDY    12  12 100 W7        30.29S WCI   2
SHELDON *      CLOUDY    10   9  92 W8        30.27S WCI  -1
SIOUX CITY     CLOUDY    13  10  88 W8        30.34R WCI   2
SPENCER        CLOUDY     7   4  87 W9        30.27F WCI  -7
STORM LAKE *   CLOUDY    12   9  85 NW12      30.26F WCI  -2
$$

IAZ055>058-069>071-079>083-090>094-121200-
   SOUTHWEST IOWA

CITY           SKY/WX    TMP DP  RH WIND       PRES   REMARKS
ATLANTIC *     CLOUDY    14  10  85 NW6       30.31S WCI   5
AUDUBON *      CLOUDY    16  10  79 NW3       30.28F
CLARINDA *     CLEAR     18  12  79 CALM      30.34F
COUNCIL BLFS * CLOUDY    16  16 100 NW6       30.32S WCI   7
CRESTON *      CLEAR     12   9  85 W6        30.30R WCI   3
HARLAN  *      CLOUDY    12  10  92 CALM      30.34S
LAMONI         CLEAR     15  10  80 NW9       30.28S WCI   3
RED OAK *      CLOUDY    16  12  86 N5        30.33S WCI   9
SHENANDOAH *   CLOUDY    18  12  79 CALM      30.35F
$$

IAZ047>049-059>061-072>074-084-121200-
   CENTRAL IOWA

CITY           SKY/WX    TMP DP  RH WIND       PRES   REMARKS
AMES           CLEAR     15   7  70 NW10      30.27R WCI   2
ANKENY *       CLEAR     16   9  73 NW10      30.29R WCI   3
BOONE *        CLEAR     14   7  73 NW12G17   30.25S WCI   0
CHARITON *     CLEAR     16  10  79 NW12      30.26S WCI   3
DES MOINES     CLEAR     16   8  71 NW14      30.27F WCI   2
GRINNELL*      CLEAR     13  10  86 NW12      30.23S WCI   0
KNOXVILLE *    CLEAR     16   9  73 NW10      30.24S WCI   3
MARSHALLTOWN   CLEAR     13   8  81 NW14      30.23R WCI  -2
NEWTON *       CLEAR     14   9  79 NW12      30.25R WCI   0
PELLA *        CLEAR     15  10  81 NW8       30.27R WCI   4
$$

IAZ004>006-015-016-023>025-035-036-121200-
   NORTH CENTRAL IOWA

CITY           SKY/WX    TMP DP  RH WIND       PRES   REMARKS
ALGONA *       CLEAR     12   9  85 NW10      30.23F WCI  -1
CLARION *      CLEAR     12   7  79 NW10      30.25R WCI  -1
ESTHERVILLE    CLEAR     10   7  87 NW10      30.24F WCI  -4
FORT DODGE *   CLEAR     13   8  81 NW6       30.26F WCI   4
MASON CITY     CLEAR     10   4  76 NW14      30.23S WCI  -6
FOREST CITY *    N/A     12   7  79 NW13G18   30.22S WCI  -3
WEBSTER CITY * CLEAR     12   7  79 NW12G18   30.24S WCI  -2
IOWA FALLS *     N/A     12   8  82 NW9       30.24S WCI   0
$$

IAZ007>011-017>019-026>030-037>042-050>054-066-121200-
   NORTHEAST IOWA

CITY           SKY/WX    TMP DP  RH WIND       PRES   REMARKS
CEDAR RAPIDS   CLEAR     16  13  88 NW12        N/A  WCI   3
CHARLES CITY * CLEAR     12   9  85 NW15      30.21S WCI  -4
CLINTON *      CLEAR     17  12  80 NW13      30.15R WCI   4
DECORAH *      PTCLDY    14   9  79 N8        30.15S WCI   3
DUBUQUE        CLEAR     14   7  73 NW16      30.12R WCI  -2
MONTICELLO *   CLEAR     18   9  68 NW13      30.16R WCI   4
OELWEIN *      PTCLDY    14  12  92 NW16      30.18R WCI  -2
WATERLOO       CLEAR     13   8  81 NW16      30.21S WCI  -3
$$

IAZ064-065-067-068-078-121200-
   EAST CENTRAL IOWA

CITY           SKY/WX    TMP DP  RH WIND       PRES   REMARKS
DAVENPORT      CLEAR     18  12  77 NW14      30.17S WCI   4
IOWA CITY      CLEAR     20  14  77 NW8       30.21S WCI  10
MT. PLEASANT * CLEAR     20  15  79 NW9       30.20S WCI   9
MUSCATINE *    CLEAR     21  12  68 NW13G18   30.20R WCI   9
QUAD CITIES    CLEAR     21  13  71 NW18G25   30.15R WCI   6
$$

IAZ062-063-075>077-085>089-095>099-121200-
   SOUTHEAST IOWA

CITY           SKY/WX    TMP DP  RH WIND       PRES   REMARKS
FAIRFIELD *    PTCLDY    19  12  73 NW13      30.22R WCI   7
FORT MADISON * CLEAR     21  12  68 NW9       30.20R WCI  11
KEOKUK *       CLEAR     23  16  74 NW10G20   30.20R WCI  12
OSKALOOSA *      N/A     16  12  84 NW10      30.24S WCI   3
WASHINGTON *   CLEAR     19  16  86 NW17      30.21S WCI   4
$$

ABBREVIATIONS USED IN REMARKS
   TC - TEMPERATURES IN CELSIUS
  WCI - WIND CHILL INDEX
   HX - HEAT INDEX
  VSB - VISIBILITY
$$





USA.gov is the U.S. government's official web portal to all federal, state and local government web resources and services.